KB6LA Weather Reports


Display with metric or nautical units.
time (UTC)temp
F
wind
direction
speed
MPH
gust
MPH
rain 1hr
in
rain 24hr
in
rain mn
in
humidity
%
barometer
mb
20260903211440 75 213 8.0 13.0 0.00 0.00 0.00 65 1011.8
20260903210934 75 241 5.0 13.0 0.00 0.00 0.00 67 1011.8
20260903210427 75 287 7.0 15.0 0.00 0.00 0.00 67 1011.8
20260903205920 74 246 4.0 15.0 0.00 0.00 0.00 67 1012.1
20260903205414 74 254 6.0 14.0 0.00 0.00 0.00 67 1012.1
20260903204908 74 202 8.0 14.0 0.00 0.00 0.00 68 1012.1
20260903204401 74 251 5.0 11.0 0.00 0.00 0.00 68 1012.1
20260903203348 73 256 6.0 15.0 0.00 0.00 0.00 68 1012.1
20260903202335 75 270 5.0 16.0 0.00 0.00 0.00 65 1012.1
20260903201828 74 208 6.0 16.0 0.00 0.00 0.00 67 1012.1
20260903200815 74 247 10.0 14.0 0.00 0.00 0.00 67 1012.4
20260903200309 74 277 6.0 14.0 0.00 0.00 0.00 69 1012.4
20260903195803 74 238 8.0 13.0 0.00 0.00 0.00 68 1012.4
20260903195255 74 230 8.0 13.0 0.00 0.00 0.00 68 1012.4
20260903194243 74 235 5.0 14.0 0.00 0.00 0.00 68 1012.4
20260903193737 74 194 5.0 14.0 0.00 0.00 0.00 69 1012.4
20260903193230 73 210 10.0 14.0 0.00 0.00 0.00 70 1012.8
20260903192724 74 259 10.0 14.0 0.00 0.00 0.00 69 1012.8
20260903192216 73 231 8.0 13.0 0.00 0.00 0.00 70 1012.8
20260903191710 73 220 9.0 14.0 0.00 0.00 0.00 69 1012.8
20260903191203 73 233 10.0 14.0 0.00 0.00 0.00 69 1012.8
20260903185644 74 256 8.0 13.0 0.00 0.00 0.00 68 1013.1
20260903185140 74 306 6.0 11.0 0.00 0.00 0.00 67 1013.1
20260903184125 75 218 4.0 13.0 0.00 0.00 0.00 67 1013.1
20260903183618 74 327 4.0 13.0 0.00 0.00 0.00 68 1013.1
20260903183111 74 290 4.0 11.0 0.00 0.00 0.00 69 1013.1
20260903182605 75 226 4.0 10.0 0.00 0.00 0.00 67 1013.4
20260903181552 75 299 0.0 7.0 0.00 0.00 0.00 64 1013.4
20260903181046 76 177 4.0 10.0 0.00 0.00 0.00 64 1013.4
20260903180539 75 199 8.0 10.0 0.00 0.00 0.00 63 1013.4
20260903175526 77 181 4.0 7.0 0.00 0.00 0.00 60 1013.4
20260903175020 75 203 2.0 6.0 0.00 0.00 0.00 62 1013.4
20260903174513 75 193 3.0 9.0 0.00 0.00 0.00 63 1013.4
20260903173500 74 111 3.0 8.0 0.00 0.00 0.00 65 1013.4
20260903172954 74 199 3.0 7.0 0.00 0.00 0.00 66 1013.4
20260903171434 76 161 4.0 7.0 0.00 0.00 0.00 61 1013.4
20260903170928 75 328 1.0 6.0 0.00 0.00 0.00 63 1013.4
20260903170422 75 317 3.0 7.0 0.00 0.00 0.00 62 1013.4
20260903165914 73 189 1.0 7.0 0.00 0.00 0.00 69 1013.4
20260903165408 71 256 0.0 6.0 0.00 0.00 0.00 72 1013.4
20260903164902 71 241 0.0 7.0 0.00 0.00 0.00 73 1013.4
20260903164355 71 144 4.0 4.0 0.00 0.00 0.00 72 1013.4
20260903163849 72 139 3.0 6.0 0.00 0.00 0.00 71 1013.4
20260903163342 71 12 1.0 6.0 0.00 0.00 0.00 72 1013.4
20260903162836 71 193 2.0 6.0 0.00 0.00 0.00 72 1013.4
20260903162329 71 190 4.0 6.0 0.00 0.00 0.00 72 1013.4
20260903161823 72 158 4.0 6.0 0.00 0.00 0.00 70 1013.4
20260903161316 71 107 2.0 6.0 0.00 0.00 0.00 72 1013.4
20260903160810 72 220 4.0 7.0 0.00 0.00 0.00 71 1013.4
20260903160304 71 146 4.0 7.0 0.00 0.00 0.00 73 1013.4
20260903155757 71 89 5.0 6.0 0.00 0.00 0.00 72 1013.4
20260903155251 71 120 2.0 6.0 0.00 0.00 0.00 73 1013.4
20260903154744 71 169 2.0 6.0 0.00 0.00 0.00 74 1013.4
20260903154237 71 100 3.0 6.0 0.00 0.00 0.00 72 1013.4
20260903153731 71 128 3.0 6.0 0.00 0.00 0.00 74 1013.4
20260903153225 71 108 3.0 4.0 0.00 0.00 0.00 75 1013.4
20260903152717 69 142 3.0 4.0 0.00 0.00 0.00 77 1013.4
20260903152211 69 174 4.0 4.0 0.00 0.00 0.00 77 1013.4
20260903151705 70 136 2.0 6.0 0.00 0.00 0.00 76 1013.1
20260903150652 71 137 3.0 7.0 0.00 0.00 0.00 75 1013.1
20260903150145 70 299 0.0 2.0 0.00 0.00 0.00 76 1013.1
20260903145640 70 29 1.0 2.0 0.00 0.00 0.00 77 1013.1
20260903144626 69 162 2.0 4.0 0.00 0.00 0.00 78 1013.1
20260903144122 69 247 1.0 3.0 0.00 0.00 0.00 78 1013.1
20260903143613 69 280 0.0 4.0 0.00 0.00 0.00 79 1013.1
20260903143106 69 94 1.0 4.0 0.00 0.00 0.00 79 1013.1
20260903142600 69 111 2.0 3.0 0.00 0.00 0.00 79 1012.8
20260903141547 68 52 1.0 3.0 0.00 0.00 0.00 81 1012.8
20260903141041 68 50 0.0 3.0 0.00 0.00 0.00 82 1012.8
20260903140533 67 306 1.0 4.0 0.00 0.00 0.00 82 1012.8
20260903140027 67 164 1.0 4.0 0.00 0.00 0.00 82 1012.8
20260903135520 67 63 2.0 4.0 0.00 0.00 0.00 83 1012.8
20260903135014 67 15 1.0 6.0 0.00 0.00 0.00 83 1012.8
20260903134508 67 180 3.0 6.0 0.00 0.00 0.00 84 1012.4
20260903134002 67 64 3.0 6.0 0.00 0.00 0.00 84 1012.4
20260903133454 67 106 4.0 6.0 0.00 0.00 0.00 84 1012.4
20260903132948 67 7 0.0 6.0 0.00 0.00 0.00 84 1012.4
20260903131936 67 108 3.0 6.0 0.00 0.00 0.00 84 1012.8
20260903131428 67 61 4.0 6.0 0.00 0.00 0.00 84 1012.8
20260903130922 67 128 3.0 3.0 0.00 0.00 0.00 83 1012.4
20260903130416 67 346 0.0 3.0 0.00 0.00 0.00 83 1012.8
20260903125909 67 9 1.0 4.0 0.00 0.00 0.00 83 1012.8
20260903125403 67 327 1.0 4.0 0.00 0.00 0.00 83 1012.8
20260903124857 67 70 3.0 6.0 0.00 0.00 0.00 83 1012.8
20260903124349 67 29 3.0 6.0 0.00 0.00 0.00 83 1012.8
20260903123337 67 24 3.0 6.0 0.00 0.00 0.00 83 1012.4
20260903122830 67 33 4.0 6.0 0.00 0.00 0.00 83 1012.4
20260903122324 67 38 2.0 6.0 0.00 0.00 0.00 83 1012.4
20260903121311 67 354 2.0 6.0 0.00 0.00 0.00 82 1012.8
20260903120804 67 25 2.0 4.0 0.00 0.00 0.00 82 1012.4
20260903120258 67 54 2.0 3.0 0.00 0.00 0.00 82 1012.4
20260903115751 67 19 2.0 3.0 0.00 0.00 0.00 81 1012.8
20260903115245 66 357 2.0 4.0 0.00 0.00 0.00 81 1012.8
20260903114738 66 356 2.0 4.0 0.00 0.00 0.00 81 1012.8
20260903114231 66 44 2.0 4.0 0.00 0.00 0.00 81 1012.8
20260903113725 66 32 3.0 3.0 0.00 0.00 0.00 81 1012.8
20260903112713 66 27 2.0 4.0 0.00 0.00 0.00 80 1012.8
20260903112206 66 10 2.0 4.0 0.00 0.00 0.00 81 1012.8
20260903111659 66 9 2.0 4.0 0.00 0.00 0.00 81 1012.8
20260903111153 66 42 1.0 4.0 0.00 0.00 0.00 81 1012.8
20260903110647 66 19 2.0 6.0 0.00 0.00 0.00 81 1012.8
20260903110141 66 10 2.0 6.0 0.00 0.00 0.00 81 1012.8
20260903105634 66 12 2.0 4.0 0.00 0.00 0.00 81 1012.8
20260903104621 66 329 1.0 3.0 0.00 0.00 0.00 82 1012.8
20260903103607 66 71 3.0 4.0 0.00 0.00 0.00 81 1012.8
20260903103101 66 35 2.0 4.0 0.00 0.00 0.00 81 1012.8
20260903102554 66 3 2.0 6.0 0.00 0.00 0.00 80 1012.8
20260903102048 66 42 2.0 6.0 0.00 0.00 0.00 80 1012.8
20260903101543 66 19 3.0 4.0 0.00 0.00 0.00 80 1013.1
20260903101035 66 20 2.0 4.0 0.00 0.00 0.00 80 1012.8
20260903100528 66 10 2.0 4.0 0.00 0.00 0.00 79 1012.8
20260903100022 66 349 2.0 4.0 0.00 0.00 0.00 79 1013.1
20260903095516 66 356 2.0 4.0 0.00 0.00 0.00 79 1012.8
20260903094502 66 29 3.0 4.0 0.00 0.00 0.00 78 1013.1
20260903093956 66 42 3.0 4.0 0.00 0.00 0.00 78 1013.1
20260903093450 66 30 4.0 4.0 0.00 0.00 0.00 78 1012.8
20260903092436 66 19 3.0 4.0 0.00 0.00 0.00 77 1013.1
20260903091930 66 18 3.0 4.0 0.00 0.00 0.00 77 1013.4
20260903091424 66 22 3.0 4.0 0.00 0.00 0.00 77 1013.1
20260903090919 66 30 3.0 4.0 0.00 0.00 0.00 76 1013.4
20260903090411 66 14 3.0 3.0 0.00 0.00 0.00 76 1013.4
20260903085904 66 359 2.0 4.0 0.00 0.00 0.00 76 1013.1
20260903085357 66 339 1.0 4.0 0.00 0.00 0.00 76 1013.4
20260903084851 66 339 1.0 3.0 0.00 0.00 0.00 75 1013.4
20260903084345 66 0 1.0 3.0 0.00 0.00 0.00 75 1013.4
20260903083839 66 6 2.0 3.0 0.00 0.00 0.00 75 1013.4
20260903083332 66 343 1.0 3.0 0.00 0.00 0.00 74 1013.4
20260903082825 67 353 1.0 3.0 0.00 0.00 0.00 74 1013.4
20260903082319 67 339 2.0 4.0 0.00 0.00 0.00 74 1013.4
20260903081813 67 4 3.0 4.0 0.00 0.00 0.00 73 1013.4
20260903080800 66 17 2.0 4.0 0.00 0.00 0.00 73 1013.4
20260903080253 66 6 1.0 2.0 0.00 0.00 0.00 72 1013.4
20260903075746 66 334 1.0 2.0 0.00 0.00 0.00 71 1013.4
20260903075240 66 328 1.0 3.0 0.00 0.00 0.00 71 1013.8
20260903074734 67 331 1.0 3.0 0.00 0.00 0.00 71 1013.4
20260903073721 66 1 1.0 3.0 0.00 0.00 0.00 71 1013.4
20260903073214 66 336 0.0 3.0 0.00 0.00 0.00 71 1013.8
20260903072708 66 13 1.0 3.0 0.00 0.00 0.00 71 1013.4
20260903072202 66 339 1.0 2.0 0.00 0.00 0.00 71 1013.4
20260903071654 66 336 2.0 2.0 0.00 0.00 0.00 71 1013.4
20260903070642 66 323 1.0 1.0 0.00 0.00 0.00 69 1013.4
20260903070135 67 323 0.0 2.0 0.00 0.00 0.00 69 1013.4
20260903065628 67 310 0.0 2.0 0.00 0.00 0.00 68 1013.8
20260903065122 67 332 0.0 2.0 0.00 0.00 0.00 68 1013.4
20260903064616 67 339 1.0 2.0 0.00 0.00 0.00 68 1013.4
20260903064109 67 337 1.0 2.0 0.00 0.00 0.00 68 1013.4
20260903063603 67 333 1.0 2.0 0.00 0.00 0.00 68 1013.4
20260903063056 67 348 1.0 2.0 0.00 0.00 0.00 68 1013.4
20260903062550 67 321 1.0 1.0 0.00 0.00 0.00 68 1013.4
20260903062043 67 340 1.0 1.0 0.00 0.00 0.00 68 1013.4
20260903061537 68 326 1.0 3.0 0.00 0.00 0.00 68 1013.4
20260903061030 68 355 1.0 3.0 0.00 0.00 0.00 67 1013.4
20260903060524 68 6 2.0 3.0 0.00 0.00 0.00 67 1013.4
20260903060017 68 25 2.0 2.0 0.00 0.00 0.00 68 1013.4
20260903055511 68 354 1.0 2.0 0.00 0.00 0.00 70 1013.4
20260903053951 68 335 0.0 0.0 0.00 0.00 0.00 70 1013.1
20260903053446 68 335 0.0 1.0 0.00 0.00 0.00 70 1013.4
20260903052938 68 335 0.0 1.0 0.00 0.00 0.00 70 1013.4
20260903052432 68 334 1.0 1.0 0.00 0.00 0.00 70 1013.1
20260903051926 68 313 0.0 1.0 0.00 0.00 0.00 70 1013.4
20260903050912 69 310 1.0 2.0 0.00 0.00 0.00 69 1013.4
20260903045859 69 317 0.0 2.0 0.00 0.00 0.00 68 1013.1
20260903044846 70 355 1.0 3.0 0.00 0.00 0.00 68 1013.4
20260903044340 70 0 2.0 3.0 0.00 0.00 0.00 68 1013.4
20260903043833 70 3 1.0 4.0 0.00 0.00 0.00 68 1013.4
20260903043327 70 23 1.0 6.0 0.00 0.00 0.00 68 1013.1
20260903042821 70 43 4.0 6.0 0.00 0.00 0.00 68 1013.1
20260903042314 70 39 3.0 6.0 0.00 0.00 0.00 68 1013.1
20260903041301 70 27 4.0 4.0 0.00 0.00 0.00 67 1013.1
20260903040755 70 48 4.0 4.0 0.00 0.00 0.00 67 1013.1
20260903035235 71 19 2.0 6.0 0.00 0.00 0.00 66 1013.1
20260903034223 71 41 3.0 4.0 0.00 0.00 0.00 66 1012.8
20260903033716 71 340 1.0 6.0 0.00 0.00 0.00 66 1012.8
20260903033209 71 43 3.0 7.0 0.00 0.00 0.00 66 1012.8
20260903032702 71 44 4.0 7.0 0.00 0.00 0.00 66 1012.8
20260903031649 71 19 3.0 6.0 0.00 0.00 0.00 65 1012.4
20260903031143 71 19 3.0 6.0 0.00 0.00 0.00 67 1012.4
20260903030637 71 18 1.0 6.0 0.00 0.00 0.00 66 1012.4
20260903030130 72 11 2.0 6.0 0.00 0.00 0.00 66 1012.4
20260903025117 71 59 2.0 4.0 0.00 0.00 0.00 65 1012.8
20260903024611 71 35 2.0 4.0 0.00 0.00 0.00 64 1012.4
20260903024104 71 71 3.0 4.0 0.00 0.00 0.00 63 1012.4
20260903023557 71 51 2.0 3.0 0.00 0.00 0.00 63 1012.4
20260903020519 72 321 0.0 2.0 0.00 0.00 0.00 62 1012.4
20260903020012 73 276 0.0 3.0 0.00 0.00 0.00 62 1012.4
20260903014958 72 237 2.0 4.0 0.00 0.00 0.00 62 1012.4
20260903014452 73 260 2.0 8.0 0.00 0.00 0.00 62 1012.8
20260903013946 72 246 3.0 8.0 0.00 0.00 0.00 63 1012.8
20260903013439 72 212 6.0 8.0 0.00 0.00 0.00 63 1012.8
20260903011919 72 225 6.0 11.0 0.00 0.00 0.00 67 1012.8
20260903011413 72 219 8.0 11.0 0.00 0.00 0.00 68 1012.8
20260903010907 72 262 6.0 11.0 0.00 0.00 0.00 67 1012.8
20260903010400 72 236 5.0 11.0 0.00 0.00 0.00 67 1012.8
20260903004841 73 244 5.0 11.0 0.00 0.00 0.00 66 1012.8
20260903004335 73 223 4.0 14.0 0.00 0.00 0.00 67 1012.8
20260903003828 73 215 6.0 13.0 0.00 0.00 0.00 67 1012.8
20260903003321 73 253 8.0 13.0 0.00 0.00 0.00 67 1012.8
20260903002815 73 232 8.0 14.0 0.00 0.00 0.00 67 1012.8
20260903002308 73 268 11.0 14.0 0.00 0.00 0.00 67 1012.8
20260903001802 73 219 4.0 14.0 0.00 0.00 0.00 67 1012.8
20260903001255 73 191 10.0 14.0 0.00 0.00 0.00 65 1012.8
20260903000749 74 248 3.0 13.0 0.00 0.00 0.00 64 1013.1
20260903000241 74 257 10.0 14.0 0.00 0.00 0.00 63 1012.8
20260902235735 74 202 9.0 14.0 0.00 0.00 0.00 61 1013.1
20260902234216 74 252 7.0 10.0 0.00 0.00 0.00 61 1013.1
20260902233709 74 269 5.0 10.0 0.00 0.00 0.00 61 1013.1
20260902233203 74 257 5.0 14.0 0.00 0.00 0.00 62 1013.1
20260902232150 74 285 10.0 15.0 0.00 0.00 0.00 64 1013.1
20260902231136 74 221 11.0 13.0 0.00 0.00 0.00 64 1013.4
20260902230630 74 210 8.0 14.0 0.00 0.00 0.00 66 1013.4
20260902230124 74 220 11.0 13.0 0.00 0.00 0.00 65 1013.4
20260902225617 74 249 6.0 13.0 0.00 0.00 0.00 65 1013.4
20260902225110 74 220 6.0 13.0 0.00 0.00 0.00 63 1013.4
20260902224604 74 230 6.0 11.0 0.00 0.00 0.00 64 1013.4
20260902224058 74 252 4.0 14.0 0.00 0.00 0.00 65 1013.4
20260902223551 74 232 8.0 14.0 0.00 0.00 0.00 66 1013.4
20260902223044 74 273 7.0 14.0 0.00 0.00 0.00 66 1013.4
20260902222538 74 235 9.0 14.0 0.00 0.00 0.00 65 1013.8
20260902222031 74 233 7.0 13.0 0.00 0.00 0.00 67 1013.4
20260902221524 74 240 6.0 14.0 0.00 0.00 0.00 67 1013.8
20260902221018 75 265 6.0 14.0 0.00 0.00 0.00 65 1013.8
20260902220512 75 202 7.0 15.0 0.00 0.00 0.00 64 1013.8
20260902220006 74 246 7.0 15.0 0.00 0.00 0.00 64 1013.8
20260902214952 76 239 12.0 14.0 0.00 0.00 0.00 61 1014.1
20260902213940 76 234 11.0 15.0 0.00 0.00 0.00 61 1014.1
20260902213433 75 292 5.0 15.0 0.00 0.00 0.00 61 1014.1
20260902212926 76 176 6.0 14.0 0.00 0.00 0.00 61 1014.1
20260902211913 75 228 8.0 15.0 0.00 0.00 0.00 60 1014.1